This is the latest recevied weather packets stored in our database for station/object KO6HRZ. If no packets are shown the sender has not sent any weather packets the latest 10 day(s).
| Time | Temp. | Humidity | Pressure | Rain* | Wind** | Luminosity | Snow |
|---|---|---|---|---|---|---|---|
| 1788199246 | 21.11° C | 63% | 1011.6 hPa | 0 mm | - | 380 W/m² | - |
| 1788198644 | 20.56° C | 65% | 1011.5 hPa | 0 mm | - | 363 W/m² | - |
| 1788198044 | 20° C | 67% | 1011.4 hPa | 0 mm | - | 373 W/m² | - |
| 1788197439 | 20.56° C | 67% | 1011.4 hPa | 0 mm | - | 410 W/m² | - |
| 1788196834 | 20° C | 69% | 1011.3 hPa | 0 mm | - | 396 W/m² | - |
| 1788196233 | 19.44° C | 70% | 1011.3 hPa | 0 mm | - | 352 W/m² | - |
| 1788195631 | 18.89° C | 71% | 1011.2 hPa | 0 mm | - | 279 W/m² | - |
| 1788195028 | 18.89° C | 71% | 1011.1 hPa | 0 mm | - | 357 W/m² | - |
| 1788194440 | 18.33° C | 74% | 1011.1 hPa | 0 mm | - | 296 W/m² | - |
| 1788193821 | 18.33° C | 74% | 1010.9 hPa | 0 mm | - | 272 W/m² | - |
| 1788193218 | 18.33° C | 75% | 1011 hPa | 0 mm | - | 236 W/m² | - |
| 1788192616 | 17.78° C | 76% | 1011.1 hPa | 0 mm | - | 230 W/m² | - |
| 1788192015 | 17.22° C | 78% | 1011.1 hPa | 0 mm | - | 220 W/m² | - |
| 1788191407 | 17.22° C | 79% | 1011.1 hPa | 0 mm | - | 219 W/m² | - |
| 1788190802 | 16.11° C | 81% | 1011 hPa | 0 mm | - | 190 W/m² | - |
| 1788190200 | 15.56° C | 83% | 1011.1 hPa | 0 mm | - | 150 W/m² | - |
| 1788189595 | 15.56° C | 84% | 1010.9 hPa | 0 mm | - | 93 W/m² | - |
| 1788188996 | 15° C | 85% | 1010.9 hPa | 0 mm | - | 101 W/m² | - |
| 1788188391 | 15° C | 86% | 1010.7 hPa | 0 mm | - | 84 W/m² | - |
| 1788187789 | 15° C | 87% | 1010.5 hPa | 0 mm | - | 65 W/m² | - |
| 1788187185 | 15° C | 87% | 1010.3 hPa | 0 mm | - | 50 W/m² | - |
| 1788186581 | 14.44° C | 87% | 1010.2 hPa | 0 mm | - | 42 W/m² | - |
| 1788185978 | 14.44° C | 88% | 1010.2 hPa | 0 mm | - | 35 W/m² | - |
| 1788185373 | 13.89° C | 88% | 1010.2 hPa | 0 mm | - | 28 W/m² | - |
| 1788184772 | 13.89° C | 88% | 1010 hPa | 0 mm | - | 21 W/m² | - |
* Rain latest hour (hover to see other rain measurements)
** Current wind speed in m/s (hover to see current wind gust speed)